Location: Carrières
(48.9495°N, 2.0407°E)
Time: 08:30:30
(UTC+00:00)

Cosmos 468 Rocket - Pass Details

Date: 28 January 2023
Orbit: 744 x 778 km, 74.0° (Epoch: 23 March)

Event Time Altitude Azimuth Distance (km) Brightness Sun altitude
Rises 18:30:11 0° 340° (NNW) 3,234 7.4 -17.7°
Reaches altitude 10° 18:32:43 10° 348° (NNW) 2,299 6.5 -18.1°
Maximum altitude 18:37:37 40° 58° (ENE) 1,112 4.4 -18.9°
Enters shadow 18:38:27 37° 81° (E) 1,162 4.4 -19.0°
